Theta_e
304 305 306 307 307 308 308 308 309 310 310 311 311 311 312 312 314 318 329 322 326 326 327 333 345 347 349 348 347 347 351 341 335 334 333 338 341 345 348 349 348 351 352 352 351
303 305 306 306 307 307 307 308 309 310 310 311 312 312 312 312 315 321 320 322 326 329 327 337 342 344 344 343 341 340 336 338 335 332 332 332 336 345 352 348 347 354 352 351 351
302 303 304 306 306 306 307 308 309 309 310 310 311 312 313 313 326 331 328 325 325 324 322 329 339 341 341 336 339 339 334 334 335 334 333 332 335 345 350 350 347 354 352 350 351
302 302 303 303 305 306 307 308 309 310 310 310 311 312 313 318 324 334 326 325 326 325 327 328 335 340 340 337 336 337 333 334 333 333 333 336 335 340 343 347 348 351 350 350 351
302 303 303 303 304 305 305 307 309 310 310 310 311 311 314 321 324 326 327 326 325 325 330 332 338 339 340 336 334 331 332 331 332 332 333 334 336 339 344 348 349 350 350 351 350
302 302 303 304 304 305 306 307 309 310 311 311 311 312 325 321 321 333 325 326 330 332 332 332 339 337 338 333 331 329 329 330 330 331 333 334 336 341 342 351 352 351 351 350 351
302 302 302 303 304 304 306 308 310 311 311 311 311 314 323 319 320 335 335 333 331 332 330 333 335 332 332 330 330 328 327 328 329 330 331 333 334 340 341 350 352 352 351 352 351
301 301 302 303 305 305 306 309 312 312 311 311 312 321 323 318 320 321 330 337 334 331 330 331 330 327 325 325 325 325 324 325 328 329 330 332 332 338 340 342 353 352 352 353 352
301 302 302 303 304 305 306 310 314 312 312 313 316 323 322 324 322 323 323 334 335 332 332 332 329 325 324 323 322 323 323 324 326 328 330 332 332 334 338 345 348 351 351 352 353
301 302 302 303 305 305 307 312 316 317 320 320 322 323 323 322 325 324 323 327 333 332 331 330 324 324 321 321 322 323 324 324 326 329 331 332 331 330 332 344 348 349 351 353 356
302 302 302 303 304 305 307 313 318 322 322 323 324 321 321 323 324 324 323 325 327 332 330 328 323 322 322 322 324 325 325 326 328 328 327 327 332 331 330 333 341 349 350 354 357
303 303 303 304 305 308 311 316 315 318 315 316 317 318 320 321 323 324 324 320 322 325 326 325 324 324 326 326 325 325 325 327 327 328 327 326 327 327 329 329 334 350 350 353 358
308 308 304 303 306 313 311 313 315 315 313 316 316 318 318 319 320 324 322 322 321 322 323 323 324 326 326 326 325 323 325 326 326 325 325 326 327 328 328 329 334 350 350 351 358
311 311 312 306 310 307 312 314 314 314 314 318 318 319 318 319 318 321 324 323 323 322 323 323 325 326 327 326 325 323 326 327 326 324 324 326 324 326 329 327 335 336 352 350 361
313 311 309 307 305 311 312 314 314 314 319 320 320 322 320 318 319 320 322 323 322 323 323 324 326 327 327 327 325 324 325 324 325 322 326 326 324 325 329 329 335 335 344 352 363
314 312 303 308 307 307 311 312 313 315 320 320 321 320 320 320 319 320 321 323 322 322 323 325 326 326 326 328 326 327 325 323 322 320 323 325 327 326 327 330 341 339 341 354 364
314 314 305 305 307 308 312 313 315 317 320 320 320 320 322 321 320 320 320 321 321 320 320 322 324 325 327 326 326 326 323 321 322 323 325 323 325 327 332 339 344 342 346 354 364
310 311 314 313 310 313 313 314 318 319 319 320 320 321 323 322 322 321 321 321 323 321 321 321 323 325 326 326 326 326 323 320 324 328 327 327 330 329 332 333 342 342 349 353 364
306 309 311 313 313 315 314 315 318 320 320 320 319 321 322 323 322 322 321 321 323 323 323 322 323 326 326 326 326 326 325 323 323 323 324 324 328 333 335 341 344 351 352 352 361
304 308 314 314 314 315 315 315 316 317 317 318 319 320 322 322 322 323 324 325 325 324 324 323 324 324 326 326 326 325 326 324 322 326 329 329 333 335 337 339 354 354 353 353 357
308 316 316 317 317 317 317 316 317 317 318 318 319 320 320 322 321 321 324 324 325 326 325 326 324 325 325 325 324 327 326 324 322 324 325 329 329 335 334 335 345 349 353 354 353
308 315 319 318 318 318 319 320 317 318 317 317 318 319 320 321 321 322 322 323 324 323 324 329 328 325 324 325 327 326 326 325 325 325 328 326 326 345 333 337 344 347 339 349 352
309 314 315 316 316 314 316 318 319 320 317 317 317 318 319 320 321 323 322 322 323 323 328 327 330 331 326 324 324 325 327 327 326 325 324 328 334 350 348 348 350 352 348 351 348
308 316 317 317 318 319 318 318 320 320 321 321 318 317 318 318 319 322 322 322 322 322 337 328 329 335 333 331 328 328 329 327 324 327 325 327 342 352 347 349 351 354 349 354 350
311 318 317 320 317 319 323 324 323 322 320 324 326 321 319 318 320 320 320 321 322 325 327 328 330 335 330 330 329 328 328 328 327 327 332 329 352 343 340 341 358 352 343 350 353
312 313 312 312 315 318 321 325 325 322 323 325 324 325 325 325 323 323 320 320 322 323 326 333 335 337 337 332 331 332 334 333 337 341 337 342 348 338 339 343 352 342 349 358 355
311 311 312 312 313 316 321 326 326 325 323 323 323 323 325 326 326 326 324 323 321 321 331 335 332 334 338 335 333 334 350 349 350 343 350 354 353 350 354 354 353 352 355 357 358
Wind_Speed
24 23 24 23 24 24 24 24 24 23 23 24 24 25 27 28 28 12 6 11 10 14 9 10 11 16 24 14 17 16 5 6 8 7 8 7 6 6 6 15 6 3 10 19 30
24 24 24 24 25 25 26 25 24 24 24 25 25 26 27 29 25 13 19 14 14 10 8 10 13 14 5 10 9 4 3 11 9 4 3 10 4 16 6 10 2 15 20 27 29
24 25 25 25 26 26 27 26 25 25 25 25 24 25 25 25 6 4 4 14 15 12 13 14 21 14 13 10 16 13 5 9 14 4 4 6 11 7 17 3 11 22 20 17 22
25 27 27 27 27 27 27 26 25 25 25 25 25 25 22 9 4 1 5 8 8 8 9 11 11 9 9 9 17 10 14 6 10 9 10 2 5 5 7 9 19 22 22 17 16
25 26 27 28 28 29 29 28 26 26 25 24 24 24 11 5 9 15 7 9 9 10 14 10 12 9 12 12 14 9 15 12 10 12 14 8 4 6 9 16 18 23 21 17 14
26 27 28 28 28 30 30 30 27 25 24 23 22 19 4 9 13 11 6 9 9 11 11 14 7 11 12 11 9 10 18 20 15 15 15 17 6 5 2 22 21 22 19 16 14
27 28 30 30 29 31 31 30 29 27 23 21 20 10 5 19 11 7 9 9 9 13 10 21 21 10 9 11 10 13 14 18 11 14 16 16 4 6 8 21 23 22 19 16 14
28 30 31 30 31 33 33 31 29 27 25 20 14 2 8 20 22 26 23 11 11 18 20 24 21 6 3 7 10 11 10 8 18 18 20 5 7 6 11 12 18 21 19 17 15
30 31 32 32 31 34 36 32 30 30 24 14 5 5 9 15 16 27 25 18 20 19 22 24 12 4 6 6 7 8 11 15 20 22 20 7 5 4 8 13 15 18 17 17 16
32 33 34 34 33 35 36 30 27 20 2 2 9 5 10 12 19 21 23 22 11 11 14 10 4 4 5 3 8 11 7 10 15 19 8 7 8 9 4 13 14 14 16 17 19
33 35 36 36 34 34 32 18 7 2 4 8 4 6 19 27 27 22 26 17 13 11 11 9 5 8 12 14 17 17 17 12 8 9 7 8 3 5 6 4 11 14 16 18 20
32 34 37 37 35 27 16 4 15 11 9 11 18 23 27 28 24 20 21 12 10 14 9 7 11 15 17 19 19 18 12 7 9 11 7 9 9 7 6 8 8 17 15 18 20
33 36 36 38 31 7 20 23 18 23 7 18 23 18 20 19 23 24 11 11 10 14 14 15 15 19 20 20 20 11 6 6 9 14 10 6 7 6 9 4 8 19 19 18 24
34 36 35 43 8 28 13 25 22 25 5 7 8 12 13 22 22 26 27 15 12 18 18 14 19 22 21 18 21 7 6 8 11 8 5 4 5 8 9 11 8 11 16 16 22
34 36 35 32 18 9 15 22 28 16 5 9 10 15 9 16 25 18 30 18 17 15 11 18 22 18 15 15 10 8 8 10 11 8 4 7 2 9 6 10 9 11 16 18 24
35 37 42 19 15 23 22 23 16 1 7 8 15 22 18 18 22 22 20 20 18 19 15 22 20 19 15 17 11 7 5 7 6 3 5 9 5 12 10 11 5 7 10 19 22
37 37 40 20 8 14 13 10 2 4 8 10 10 18 22 12 24 23 25 22 15 13 18 18 21 22 19 16 10 5 3 2 5 4 10 8 5 17 5 11 13 18 16 20 23
40 39 26 20 17 10 10 2 5 9 11 14 22 23 18 16 8 18 18 17 20 18 8 17 18 20 23 17 9 7 7 6 8 6 10 5 8 18 14 6 16 15 15 18 23
41 28 15 22 11 6 1 3 4 6 11 18 24 20 22 20 15 9 9 12 19 22 18 14 18 18 23 22 15 8 8 8 3 6 3 6 11 7 16 16 11 13 14 13 21
30 13 12 4 13 9 2 5 8 17 21 19 19 20 18 17 15 15 8 13 13 13 14 18 11 13 16 15 20 12 9 6 2 4 7 7 6 5 5 10 18 14 14 10 16
8 4 6 11 10 1 3 6 15 19 19 17 18 19 17 17 16 16 7 13 14 14 20 12 7 12 17 20 12 5 10 4 6 6 6 4 6 6 4 10 13 14 12 13 13
7 3 10 4 2 3 7 7 10 18 15 17 15 12 8 11 13 15 18 10 14 15 16 6 5 13 19 22 15 12 12 16 6 8 4 5 6 9 6 6 4 19 15 9 14
5 4 13 11 3 6 9 15 19 11 11 12 12 13 13 10 10 11 17 19 11 16 6 6 4 5 2 9 14 9 9 7 6 5 11 5 5 4 9 10 12 10 10 15 14
4 4 2 3 5 8 12 14 16 17 13 12 9 9 11 12 13 9 15 16 10 22 11 7 6 2 4 7 6 7 6 9 5 4 9 7 6 6 7 9 17 19 25 33 9
3 2 6 4 9 15 14 14 13 17 13 11 10 10 9 9 9 10 16 17 14 19 7 5 6 10 10 9 10 12 12 21 15 7 7 9 9 6 5 8 19 23 24 6 25
3 4 7 9 10 13 14 10 16 14 4 8 10 18 15 9 8 13 13 8 8 15 9 2 3 7 7 10 11 12 10 10 9 13 14 7 9 3 5 7 13 21 18 6 16
12 11 4 7 8 9 6 5 17 15 2 4 11 12 15 12 9 15 10 8 10 8 4 3 2 5 5 7 8 6 17 13 13 19 6 5 5 5 13 17 11 8 12 11 9
Wind_Direction
6 2 358 356 354 352 349 348 346 343 342 340 340 338 335 331 326 309 240 240 273 247 260 286 281 258 261 255 246 254 283 281 302 38 339 160 141 93 145 123 119 308 130 137 136
3 359 355 353 349 347 346 343 340 338 337 336 336 335 334 332 324 247 267 238 252 230 231 241 271 271 260 281 291 281 250 280 297 58 15 304 106 146 113 101 23 93 109 134 137
1 358 353 349 347 345 342 338 335 334 333 332 332 331 332 332 298 337 319 209 220 245 255 250 264 286 295 297 288 295 275 299 304 359 287 326 355 113 128 197 176 144 140 146 144
358 355 352 349 344 340 336 333 330 329 328 329 329 329 330 330 294 50 160 195 233 238 234 260 265 275 285 284 284 302 315 283 294 318 332 314 346 140 199 176 174 148 145 151 154
356 353 350 346 341 337 335 329 325 324 323 324 325 327 340 288 254 281 246 231 217 201 222 228 257 248 267 281 305 336 315 324 318 328 313 297 270 228 120 141 159 140 146 155 159
354 351 348 344 339 335 330 325 320 317 316 316 319 324 305 268 261 247 233 232 212 206 230 236 256 260 267 290 310 303 305 311 309 294 289 290 255 107 84 132 140 146 152 160 167
351 349 346 342 338 333 326 321 315 311 307 307 310 317 261 242 264 243 216 247 231 212 234 236 245 263 294 307 308 307 312 305 295 279 270 274 279 177 177 145 145 152 158 164 169
350 346 343 339 335 332 324 317 311 304 298 297 297 221 249 262 263 263 234 213 234 242 236 260 274 263 263 307 308 300 310 298 282 281 270 205 256 172 184 138 156 158 162 167 160
349 347 342 337 336 330 323 316 306 301 293 291 270 199 262 282 230 237 235 202 217 227 252 258 273 268 320 290 285 264 252 260 271 268 262 163 217 225 175 155 168 161 163 163 143
350 345 341 337 336 331 322 316 311 293 318 245 254 286 265 256 239 223 226 211 215 211 231 245 251 246 275 245 247 252 233 241 247 277 318 198 208 230 235 174 170 160 155 151 144
347 344 341 337 332 330 329 339 354 356 219 261 263 261 295 292 289 220 217 205 215 239 228 221 204 220 232 240 242 254 265 274 284 311 4 306 298 270 293 185 163 158 155 150 148
345 344 340 335 332 330 326 281 311 323 298 284 282 277 273 284 285 279 210 197 203 222 238 256 230 229 237 253 255 257 261 291 320 308 296 283 280 274 275 255 174 163 156 156 145
342 342 341 336 331 341 323 291 321 327 284 278 258 266 250 246 259 263 214 216 206 221 226 227 233 241 235 245 257 260 257 306 281 285 305 305 306 292 255 238 193 164 168 159 152
340 338 341 340 350 329 299 348 343 327 292 273 253 243 241 225 249 254 260 204 221 219 225 237 244 246 252 238 240 223 262 250 259 267 249 253 265 278 242 248 194 158 163 160 155
335 334 335 341 296 306 303 326 325 319 301 296 266 244 216 196 224 236 249 249 248 228 214 239 241 246 249 251 248 232 221 245 270 287 316 290 332 264 258 234 204 183 162 156 159
330 328 328 338 298 287 323 323 308 277 252 272 298 304 306 209 221 236 237 233 234 247 240 234 252 258 256 264 244 215 270 293 295 282 308 248 210 272 258 218 168 162 136 142 155
327 320 316 293 242 312 323 313 290 226 311 282 314 318 315 311 214 217 227 234 216 224 245 257 248 257 264 275 283 159 163 294 316 321 240 242 257 252 246 155 143 146 141 146 153
325 318 313 279 284 313 309 317 248 263 262 292 313 328 316 311 291 223 220 226 241 216 210 233 253 237 257 256 216 206 163 166 222 230 260 291 235 238 203 170 145 144 143 134 153
325 323 284 264 260 227 273 248 256 272 284 310 321 313 319 319 330 313 286 225 223 233 229 234 242 230 239 252 247 249 221 207 211 258 296 254 298 336 123 138 132 133 130 134 148
328 306 283 245 180 207 212 258 281 296 291 299 299 300 312 315 345 7 21 330 359 281 303 210 239 245 260 256 239 206 196 249 328 223 274 291 297 251 280 138 144 148 149 147 148
313 289 202 144 160 178 235 257 289 290 292 290 283 290 305 318 335 332 305 310 15 330 339 330 240 248 232 250 239 262 221 194 156 164 211 239 272 198 29 166 165 156 138 139 147
300 278 165 208 234 215 235 250 265 282 279 286 291 292 284 299 307 315 315 336 329 332 323 303 265 229 264 269 269 248 238 201 152 265 211 185 265 331 304 48 24 147 164 153 152
297 277 284 219 260 274 284 296 307 286 268 292 313 323 326 325 329 297 306 313 331 326 1 331 322 321 293 262 258 241 265 181 170 132 233 160 246 17 355 43 36 47 161 165 153
285 300 253 174 237 274 297 285 311 319 327 339 286 308 318 315 310 311 316 311 357 306 314 308 267 235 233 238 267 165 335 331 187 148 229 223 147 350 11 16 50 59 43 346 96
246 316 360 321 336 323 310 319 312 312 317 354 334 318 271 275 291 301 308 317 332 297 333 70 319 317 307 313 326 63 340 290 286 238 177 228 133 204 197 100 91 90 94 254 293
295 349 348 299 294 307 295 301 302 295 349 330 333 324 321 311 293 298 273 291 266 298 308 102 304 331 307 347 51 84 346 294 347 1 332 103 84 341 16 48 87 118 130 189 276
349 346 325 289 292 292 302 287 298 316 314 305 305 309 316 307 318 312 296 287 254 260 268 118 106 31 323 15 12 51 22 45 48 28 25 74 17 107 59 54 34 61 97 78 49